This demonstration page uses our WeatherBlox Daily Observations layout. Learn more.

Left ArrowRight Arrow

36.17497, -115.13722

Hourly Observations for January 9, 2018

Temp ( °F °C ) Dew Point ( °F °C ) Humidity (%) Winds ( mph kmh ) Pressure ( in mb ) Visibility ( mi km ) Precip ( " mm )
12:53 am 00:53 Mostly Cloudy 49 9.4 47 8.3 93 93 N N/A 29.97 1015 10 16 0.01 0.25
1:53 am 01:53 Cloudy with Rain 49 9.4 47 8.3 93 93 VRB 5 7 29.96 1015 7 11 0.02 0.51
2:53 am 02:53 Cloudy with Light Rain 49 9.4 47 8.3 93 93 N N/A 29.97 1015 6 10 0.08 2.03
3:50 am 03:50 Cloudy with Light Rain 46 8 46 8 100 100 S 6 9 29.94 1014 4 6 0.15 3.81
3:53 am 03:53 Cloudy with Light Rain 47 8.3 47 8.3 100 100 S 7 11 29.95 1014 4 6 0.15 3.81
4:20 am 04:20 Cloudy 48 9 N/A N/A N N/A 29.88 1012 8 13 N/A
4:33 am 04:33 Cloudy with Light Rain 48 8.9 48 8.9 100 100 N N/A 29.88 1012 9 14 N/A
4:53 am 04:53 Cloudy with Light Rain 48 8.9 48 8.9 100 100 N N/A 29.95 1014 8 13 0.01 0.25
5:06 am 05:06 Cloudy with Light Rain 48 8.9 48 8.9 100 100 N N/A 29.94 1014 6 10 0.02 0.51
5:53 am 05:53 Cloudy with Light Rain 48 8.9 48 8.9 100 100 N N/A 29.93 1014 8 13 0.05 1.27
6:31 am 06:31 Cloudy 48 8.9 48 8.9 100 100 S 3 6 29.88 1012 8 13 N/A
6:53 am 06:53 Cloudy with Light Rain 48 8.9 48 8.9 100 100 S 3 6 29.93 1014 5 8 0.04 1.02
7:23 am 07:23 Cloudy with Rain 48 8.9 48 8.9 100 100 SSE 7 11 29.88 1012 5 8 0.08 2.03
7:53 am 07:53 Cloudy with Rain 48 8.9 48 8.9 100 100 S 3 6 29.93 1014 3 4 0.23 5.84
8:00 am 08:00 Cloudy with Rain 48 8.9 48 8.9 100 100 N N/A 29.88 1012 3 5 0.01 0.25
8:13 am 08:13 Cloudy with Light Rain 48 8.9 48 8.9 100 100 N N/A 29.88 1012 4 6 0.03 0.76
8:48 am 08:48 Cloudy with Rain 48 9 48 9 100 100 WSW 3 6 29.88 1012 3 5 0.07 1.78
8:53 am 08:53 Cloudy with Rain 49 9.4 49 9.4 100 100 WSW 3 6 29.92 1013 3 4 0.08 2.03
8:56 am 08:56 Cloudy with Light Rain 49 9.4 48 8.9 97 97 WSW 3 6 29.88 1012 3 5 N/A
9:09 am 09:09 Cloudy with Rain 49 9.4 49 9.4 100 100 SSW 3 6 29.88 1012 3 4 0.03 0.76
9:17 am 09:17 Cloudy with Light Rain 49 9.4 49 9.4 100 100 SSW 5 7 29.85 1011 4 6 0.03 0.76
9:43 am 09:43 Cloudy with Light Rain 49 9.4 49 9.4 100 100 SSE 7 11 29.85 1011 3 5 0.06 1.52
9:53 am 09:53 Cloudy with Light Rain 49 9.4 49 9.4 100 100 SE 9 15 29.90 1013 4 6 0.06 1.52
10:27 am 10:27 Cloudy with Light Rain 49 9.4 49 9.4 100 100 ESE 10 17 29.83 1010 2 3 0.03 0.76
10:37 am 10:37 Cloudy with Light Rain 49 9.4 48 8.9 97 97 SE 10 17 29.83 1010 5 8 0.03 0.76
10:53 am 10:53 Cloudy with Light Rain 49 9.4 48 8.9 97 97 ESE 10 17 29.88 1012 3 4 0.04 1.02
11:03 am 11:03 Cloudy with Light Rain 49 9.4 49 9.4 100 100 SE 8 13 29.83 1010 5 8 N/A
11:38 am 11:38 Cloudy 49 9.4 49 9.4 100 100 SSE 7 11 29.80 1009 9 14 N/A
11:53 am 11:53 Cloudy with Light Rain 49 9.4 49 9.4 100 100 S 9 15 29.85 1011 6 10 0.01 0.25
12:37 pm 12:37 Cloudy 49 9.4 49 9.4 100 100 S 5 7 29.74 1007 10 16 0.03 0.76
12:53 pm 12:53 Cloudy with Rain 50 10 49 9.4 96 96 S 6 9 29.80 1009 5 8 0.05 1.27
1:36 pm 13:36 Cloudy with Light Rain 50 10 49 9.4 96 96 SSE 5 7 29.74 1007 9 14 0.06 1.52
1:53 pm 13:53 Cloudy with Light Rain 50 10 50 10 100 100 ESE 7 11 29.76 1008 10 16 0.06 1.52
2:01 pm 14:01 Cloudy with Light Rain 50 10 50 10 100 100 ESE 8 13 29.71 1006 10 16 N/A
2:35 pm 14:35 Cloudy with Light Rain 50 10 50 10 100 100 S 6 9 29.71 1006 4 6 0.03 0.76
2:50 pm 14:50 Cloudy with Rain 50 10 50 10 100 100 S 6 9 29.71 1006 3 4 0.06 1.52
2:53 pm 14:53 Cloudy with Rain 50 10 50 10 100 100 S 5 7 29.77 1008 3 4 0.07 1.78
3:05 pm 15:05 Cloudy with Light Rain 50 10 50 10 100 100 SSW 6 9 29.74 1007 4 6 0.02 0.51
3:14 pm 15:14 Cloudy with Light Rain 50 10 50 10 100 100 SW 6 9 29.74 1007 4 6 0.04 1.02
3:53 pm 15:53 Cloudy with Light Rain 50 10 50 10 100 100 N N/A 29.79 1009 10 16 0.07 1.78
4:53 pm 16:53 Mostly Cloudy 50 10 50 10 100 100 SSE 7 11 29.74 1007 10 16 0.01 0.25
5:16 pm 17:16 Mostly Cloudy 49 9.4 49 9.4 100 100 S 9 15 29.71 1006 10 16 N/A
5:35 pm 17:35 Partly Cloudy 49 9.4 48 8.9 97 97 S 7 11 29.74 1007 10 16 N/A
5:53 pm 17:53 Clear 49 9.4 47 8.3 93 93 NNW 6 9 29.79 1009 10 16 N/A
6:53 pm 18:53 Clear 48 8.9 47 8.3 96 96 NE 6 9 29.80 1009 10 16 N/A
7:53 pm 19:53 Clear 47 8.3 46 7.8 97 97 N N/A 29.80 1009 10 16 N/A
8:53 pm 20:53 Partly Cloudy 46 7.8 46 7.8 100 100 NNW 3 6 29.81 1010 10 16 N/A
9:53 pm 21:53 Clear 45 7.2 45 7.2 100 100 W 3 6 29.83 1010 7 11 N/A
10:53 pm 22:53 Clear with Mist and Fog 44 6.7 44 6.7 100 100 N N/A 29.83 1010 6 10 N/A
11:53 pm 23:53 Clear with Light Rain 44 6.7 44 6.7 100 100 SSE 5 7 29.86 1011 5 8 N/A
11:56 pm 23:56 Mostly Clear with Mist and Fog 44 6.7 44 6.7 100 100 SSE 3 6 29.83 1010 2 3 N/A
11:58 pm 23:58 Mostly Cloudy with Mist and Fog 44 6.7 44 6.7 100 100 SSE 3 6 29.83 1010 1 1 N/A

Powered by AerisWeather